Location: Newark
(49.1000°N, 0.4667°W)
Time: 09:19:08
(UTC+00:00)

BEESAT 3 - Pass Details

Date: 08 July 2020
Orbit: 482 x 522 km, 64.9° (Epoch: 10 August)

Event Time Altitude Azimuth Distance (km) Brightness Sun altitude
Rises 02:27:41 0° 325° (NW) 2,659 ? -11.9°
Reaches altitude 10° 02:31:01 10° 355° (N) 1,763 ? -11.6°
Maximum altitude 02:32:49 13° 22° (NNE) 1,592 ? -11.4°
Drops below altitude 10° 02:34:37 10° 50° (NE) 1,754 ? -11.3°
Sets 02:37:55 0° 80° (E) 2,629 ? -11.0°
